ペトリュー彗星

185P/Petriew (2023)

English version
Home page
Updated on November 4, 2020

---------------------------------------------------------------------

・ プロフィール

・ 軌道要素

Epoch 2023 June 25.0 TT = JDT 2460120.5
T 2023 July 12.90418 TT                                 MPCW
q   0.9303053            (2000.0)            P               Q
n   0.18072118     Peri.  181.88849     +0.80954143     -0.57113557
a   3.0983467      Node   214.11401     +0.54174428     +0.81591419
e   0.6997414      Incl.   14.01467     +0.22617652     +0.08993445
P   5.45
From 1015 observations 2001 June 12-2018 Mar. 24, mean residual 0".7.
     Nongravitational parameters A1 = +0.04, A2 = +0.0156.

・ 星図

・ 光度変化

        m1 = 11.0 + 5 logΔ + 23.0 log r(t - 10)  [   ,140]  (              〜2023年11月29日)
        m1 = 14.5 + 5 logΔ + 10.0 log r          [140,   ]  (2023年11月29日〜              )

---------------------------------------------------------------------

軌道要素はM.P.E.C. 2018-F152に掲載されたものです。
星図はステラナビゲータ Ver.10 (アストロアーツ) で作成したものです。
光度グラフはComet for Windowsで作成したものです。

---------------------------------------------------------------------

Copyright(C) Seiichi Yoshida (comet@aerith.net). All rights reserved.